owner,sensor,date,latitude,longitude,air_temperature,qcFlag 
DISL,ioos:station:DISL:DISL:1,2013-02-01T00:00:00Z,30.2513,-88.0778,11.43,1111122 
DISL,ioos:station:DISL:DISL:1,2013-02-01T00:30:00Z,30.2513,-88.0778,11.75,1111122 
DISL,ioos:station:DISL:DISL:1,2013-02-01T01:00:00Z,30.2513,-88.0778,11.9,1111122 
DISL,ioos:station:DISL:DISL:1,2013-02-01T01:30:00Z,30.2513,-88.0778,12.08,1111122 
DISL,ioos:station:DISL:DISL:1,2013-02-01T02:00:00Z,30.2513,-88.0778,12.39,1111122 
DISL,ioos:station:DISL:DISL:1,2013-02-01T02:30:00Z,30.2513,-88.0778,12.44,1111122 
DISL,ioos:station:DISL:DISL:1,2013-02-01T03:00:00Z,30.2513,-88.0778,12.6,1111122 
DISL,ioos:station:DISL:DISL:1,2013-02-01T03:30:00Z,30.2513,-88.0778,12.69,1111122 
DISL,ioos:station:DISL:DISL:1,2013-02-01T04:00:00Z,30.2513,-88.0778,12.71,1111122 
DISL,ioos:station:DISL:DISL:1,2013-02-01T04:30:00Z,30.2513,-88.0778,12.8,1111122 
DISL,ioos:station:DISL:DISL:1,2013-02-01T05:00:00Z,30.2513,-88.0778,12.83,1111122 
DISL,ioos:station:DISL:DISL:1,2013-02-01T05:30:00Z,30.2513,-88.0778,12.96,1111122 
DISL,ioos:station:DISL:DISL:1,2013-02-01T06:00:00Z,30.2513,-88.0778,12.85,1111122 
DISL,ioos:station:DISL:DISL:1,2013-02-01T06:30:00Z,30.2513,-88.0778,12.56,1111122 
DISL,ioos:station:DISL:DISL:1,2013-02-01T07:00:00Z,30.2513,-88.0778,12.64,1111122 
DISL,ioos:station:DISL:DISL:1,2013-02-01T07:30:00Z,30.2513,-88.0778,12.55,1111122 
DISL,ioos:station:DISL:DISL:1,2013-02-01T08:00:00Z,30.2513,-88.0778,12.43,1111122 
DISL,ioos:station:DISL:DISL:1,2013-02-01T08:30:00Z,30.2513,-88.0778,12.36,1111122 
DISL,ioos:station:DISL:DISL:1,2013-02-01T09:00:00Z,30.2513,-88.0778,12.24,1111122 
DISL,ioos:station:DISL:DISL:1,2013-02-01T09:30:00Z,30.2513,-88.0778,11.81,1111122 
DISL,ioos:station:DISL:DISL:1,2013-02-01T10:00:00Z,30.2513,-88.0778,11.49,1111122 
DISL,ioos:station:DISL:DISL:1,2013-02-01T10:30:00Z,30.2513,-88.0778,11.25,1111122 
DISL,ioos:station:DISL:DISL:1,2013-02-01T11:00:00Z,30.2513,-88.0778,11.38,1111122 
DISL,ioos:station:DISL:DISL:1,2013-02-01T11:30:00Z,30.2513,-88.0778,11.32,1111122 
DISL,ioos:station:DISL:DISL:1,2013-02-01T12:00:00Z,30.2513,-88.0778,11.2,1111122 
DISL,ioos:station:DISL:DISL:1,2013-02-01T12:30:00Z,30.2513,-88.0778,11.26,1111122 
DISL,ioos:station:DISL:DISL:1,2013-02-01T13:00:00Z,30.2513,-88.0778,11.3,1111122 
DISL,ioos:station:DISL:DISL:1,2013-02-01T13:30:00Z,30.2513,-88.0778,11.02,1111122 
DISL,ioos:station:DISL:DISL:1,2013-02-01T14:00:00Z,30.2513,-88.0778,10.34,1111122 
DISL,ioos:station:DISL:DISL:1,2013-02-01T14:30:00Z,30.2513,-88.0778,10.03,1111122 
DISL,ioos:station:DISL:DISL:1,2013-02-01T15:00:00Z,30.2513,-88.0778,9.87,1111122 
DISL,ioos:station:DISL:DISL:1,2013-02-01T15:30:00Z,30.2513,-88.0778,9.91,1111122 
DISL,ioos:station:DISL:DISL:1,2013-02-01T16:00:00Z,30.2513,-88.0778,10.32,1111122 
DISL,ioos:station:DISL:DISL:1,2013-02-01T16:30:00Z,30.2513,-88.0778,10.04,1111122 
DISL,ioos:station:DISL:DISL:1,2013-02-01T17:00:00Z,30.2513,-88.0778,10.02,1111122 
DISL,ioos:station:DISL:DISL:1,2013-02-01T17:30:00Z,30.2513,-88.0778,10.71,1111122 
DISL,ioos:station:DISL:DISL:1,2013-02-01T18:00:00Z,30.2513,-88.0778,10.89,1111122 
DISL,ioos:station:DISL:DISL:1,2013-02-01T18:30:00Z,30.2513,-88.0778,11.25,1111122 
DISL,ioos:station:DISL:DISL:1,2013-02-01T19:00:00Z,30.2513,-88.0778,11.54,1111122 
DISL,ioos:station:DISL:DISL:1,2013-02-01T19:30:00Z,30.2513,-88.0778,12.12,1111122 
DISL,ioos:station:DISL:DISL:1,2013-02-01T20:00:00Z,30.2513,-88.0778,12.7,1111122 
DISL,ioos:station:DISL:DISL:1,2013-02-01T20:30:00Z,30.2513,-88.0778,13.08,1111122 
DISL,ioos:station:DISL:DISL:1,2013-02-01T21:00:00Z,30.2513,-88.0778,13.22,1111122 
DISL,ioos:station:DISL:DISL:1,2013-02-01T21:30:00Z,30.2513,-88.0778,13.44,1111122 
DISL,ioos:station:DISL:DISL:1,2013-02-01T22:00:00Z,30.2513,-88.0778,13.6,1111122 
DISL,ioos:station:DISL:DISL:1,2013-02-01T22:30:00Z,30.2513,-88.0778,13.86,1111122 
DISL,ioos:station:DISL:DISL:1,2013-02-01T23:00:00Z,30.2513,-88.0778,13.84,1111122 
DISL,ioos:station:DISL:DISL:1,2013-02-01T23:30:00Z,30.2513,-88.0778,13.89,1111122 
DISL,ioos:station:DISL:DISL:1,2013-02-02T00:00:00Z,30.2513,-88.0778,13.91,1111122 
DISL,ioos:station:DISL:DISL:1,2013-02-02T00:30:00Z,30.2513,-88.0778,13.78,1111122 
DISL,ioos:station:DISL:DISL:1,2013-02-02T01:00:00Z,30.2513,-88.0778,13.78,1111122 
DISL,ioos:station:DISL:DISL:1,2013-02-02T01:30:00Z,30.2513,-88.0778,13.69,1111122 
DISL,ioos:station:DISL:DISL:1,2013-02-02T02:00:00Z,30.2513,-88.0778,13.41,1111122 
DISL,ioos:station:DISL:DISL:1,2013-02-02T02:30:00Z,30.2513,-88.0778,12.84,1111122 
DISL,ioos:station:DISL:DISL:1,2013-02-02T03:00:00Z,30.2513,-88.0778,12.06,1111122 
DISL,ioos:station:DISL:DISL:1,2013-02-02T03:30:00Z,30.2513,-88.0778,11.79,1111122 
DISL,ioos:station:DISL:DISL:1,2013-02-02T04:00:00Z,30.2513,-88.0778,11.3,1111122 
DISL,ioos:station:DISL:DISL:1,2013-02-02T04:30:00Z,30.2513,-88.0778,10.88,1111122 
DISL,ioos:station:DISL:DISL:1,2013-02-02T05:00:00Z,30.2513,-88.0778,10.62,1111122 
DISL,ioos:station:DISL:DISL:1,2013-02-02T05:30:00Z,30.2513,-88.0778,10.37,1111122 
DISL,ioos:station:DISL:DISL:1,2013-02-02T06:00:00Z,30.2513,-88.0778,9.97,1111122 
DISL,ioos:station:DISL:DISL:1,2013-02-02T06:30:00Z,30.2513,-88.0778,9.99,1111122 
DISL,ioos:station:DISL:DISL:1,2013-02-02T07:00:00Z,30.2513,-88.0778,9.91,1111122 
DISL,ioos:station:DISL:DISL:1,2013-02-02T07:30:00Z,30.2513,-88.0778,9.65,1111122 
DISL,ioos:station:DISL:DISL:1,2013-02-02T08:00:00Z,30.2513,-88.0778,9.47,1111122 
DISL,ioos:station:DISL:DISL:1,2013-02-02T08:30:00Z,30.2513,-88.0778,9.44,1111122 
DISL,ioos:station:DISL:DISL:1,2013-02-02T09:00:00Z,30.2513,-88.0778,9.26,1111122 
DISL,ioos:station:DISL:DISL:1,2013-02-02T09:30:00Z,30.2513,-88.0778,9.05,1111122 
DISL,ioos:station:DISL:DISL:1,2013-02-02T10:00:00Z,30.2513,-88.0778,8.9,1111122 
DISL,ioos:station:DISL:DISL:1,2013-02-02T10:30:00Z,30.2513,-88.0778,8.69,1111122 
DISL,ioos:station:DISL:DISL:1,2013-02-02T11:00:00Z,30.2513,-88.0778,8.5,1111122 
DISL,ioos:station:DISL:DISL:1,2013-02-02T11:30:00Z,30.2513,-88.0778,8.27,1111122 
DISL,ioos:station:DISL:DISL:1,2013-02-02T12:00:00Z,30.2513,-88.0778,8.63,1111122 
DISL,ioos:station:DISL:DISL:1,2013-02-02T12:30:00Z,30.2513,-88.0778,8.47,1111122 
DISL,ioos:station:DISL:DISL:1,2013-02-02T13:00:00Z,30.2513,-88.0778,8.45,1111122 
DISL,ioos:station:DISL:DISL:1,2013-02-02T13:30:00Z,30.2513,-88.0778,8.55,1111122 
DISL,ioos:station:DISL:DISL:1,2013-02-02T14:00:00Z,30.2513,-88.0778,8.53,1111122 
DISL,ioos:station:DISL:DISL:1,2013-02-02T14:30:00Z,30.2513,-88.0778,8.9,1111122 
DISL,ioos:station:DISL:DISL:1,2013-02-02T15:00:00Z,30.2513,-88.0778,9.21,1111122 
DISL,ioos:station:DISL:DISL:1,2013-02-02T15:30:00Z,30.2513,-88.0778,9.96,1111122 
DISL,ioos:station:DISL:DISL:1,2013-02-02T16:00:00Z,30.2513,-88.0778,11.19,1111122 
DISL,ioos:station:DISL:DISL:1,2013-02-02T16:30:00Z,30.2513,-88.0778,12.66,1111122 
DISL,ioos:station:DISL:DISL:1,2013-02-02T17:00:00Z,30.2513,-88.0778,13.28,1111122 
DISL,ioos:station:DISL:DISL:1,2013-02-02T17:30:00Z,30.2513,-88.0778,14.3,1111122 
DISL,ioos:station:DISL:DISL:1,2013-02-02T18:00:00Z,30.2513,-88.0778,14.64,1111122 
DISL,ioos:station:DISL:DISL:1,2013-02-02T18:30:00Z,30.2513,-88.0778,14.74,1111122 
DISL,ioos:station:DISL:DISL:1,2013-02-02T19:00:00Z,30.2513,-88.0778,15.12,1111122 
DISL,ioos:station:DISL:DISL:1,2013-02-02T19:30:00Z,30.2513,-88.0778,15.03,1111122 
DISL,ioos:station:DISL:DISL:1,2013-02-02T20:00:00Z,30.2513,-88.0778,15.23,1111122 
DISL,ioos:station:DISL:DISL:1,2013-02-02T20:30:00Z,30.2513,-88.0778,15.62,1111122 
DISL,ioos:station:DISL:DISL:1,2013-02-02T21:00:00Z,30.2513,-88.0778,15.57,1111122 
DISL,ioos:station:DISL:DISL:1,2013-02-02T21:30:00Z,30.2513,-88.0778,15.6,1111122 
DISL,ioos:station:DISL:DISL:1,2013-02-02T22:00:00Z,30.2513,-88.0778,15.78,1111122 
DISL,ioos:station:DISL:DISL:1,2013-02-02T22:30:00Z,30.2513,-88.0778,15.63,1111122 
DISL,ioos:station:DISL:DISL:1,2013-02-02T23:00:00Z,30.2513,-88.0778,15.21,1111122 
DISL,ioos:station:DISL:DISL:1,2013-02-02T23:30:00Z,30.2513,-88.0778,15.03,1111122 
DISL,ioos:station:DISL:DISL:1,2013-02-03T00:00:00Z,30.2513,-88.0778,14.76,1111122 
DISL,ioos:station:DISL:DISL:1,2013-02-03T00:30:00Z,30.2513,-88.0778,14.57,1111122 
DISL,ioos:station:DISL:DISL:1,2013-02-03T01:00:00Z,30.2513,-88.0778,14.22,1111122 
DISL,ioos:station:DISL:DISL:1,2013-02-03T01:30:00Z,30.2513,-88.0778,14.38,1111122 
DISL,ioos:station:DISL:DISL:1,2013-02-03T02:00:00Z,30.2513,-88.0778,13.97,1111122 
DISL,ioos:station:DISL:DISL:1,2013-02-03T02:30:00Z,30.2513,-88.0778,14.25,1111122 
DISL,ioos:station:DISL:DISL:1,2013-02-03T03:00:00Z,30.2513,-88.0778,14.34,1111122 
DISL,ioos:station:DISL:DISL:1,2013-02-03T03:30:00Z,30.2513,-88.0778,14.57,1111122 
DISL,ioos:station:DISL:DISL:1,2013-02-03T04:00:00Z,30.2513,-88.0778,14.86,1111122 
DISL,ioos:station:DISL:DISL:1,2013-02-03T04:30:00Z,30.2513,-88.0778,14.87,1111122 
DISL,ioos:station:DISL:DISL:1,2013-02-03T05:00:00Z,30.2513,-88.0778,15.25,1111122 
DISL,ioos:station:DISL:DISL:1,2013-02-03T05:30:00Z,30.2513,-88.0778,15.49,1111122 
DISL,ioos:station:DISL:DISL:1,2013-02-03T06:00:00Z,30.2513,-88.0778,15.67,1111122 
DISL,ioos:station:DISL:DISL:1,2013-02-03T06:30:00Z,30.2513,-88.0778,15.71,1111122 
DISL,ioos:station:DISL:DISL:1,2013-02-03T07:00:00Z,30.2513,-88.0778,15.9,1111122 
DISL,ioos:station:DISL:DISL:1,2013-02-03T07:30:00Z,30.2513,-88.0778,15.57,1111122 
DISL,ioos:station:DISL:DISL:1,2013-02-03T08:00:00Z,30.2513,-88.0778,14.14,1111122 
DISL,ioos:station:DISL:DISL:1,2013-02-03T08:30:00Z,30.2513,-88.0778,13.45,1111122 
DISL,ioos:station:DISL:DISL:1,2013-02-03T09:00:00Z,30.2513,-88.0778,12.95,1111122 
DISL,ioos:station:DISL:DISL:1,2013-02-03T09:30:00Z,30.2513,-88.0778,13.01,1111122 
DISL,ioos:station:DISL:DISL:1,2013-02-03T10:00:00Z,30.2513,-88.0778,13.07,1111122 
DISL,ioos:station:DISL:DISL:1,2013-02-03T10:30:00Z,30.2513,-88.0778,13.19,1111122 
DISL,ioos:station:DISL:DISL:1,2013-02-03T11:00:00Z,30.2513,-88.0778,12.87,1111122 
DISL,ioos:station:DISL:DISL:1,2013-02-03T11:30:00Z,30.2513,-88.0778,12.57,1111122 
DISL,ioos:station:DISL:DISL:1,2013-02-03T12:00:00Z,30.2513,-88.0778,12.34,1111122 
DISL,ioos:station:DISL:DISL:1,2013-02-03T12:30:00Z,30.2513,-88.0778,12.17,1111122 
DISL,ioos:station:DISL:DISL:1,2013-02-03T13:00:00Z,30.2513,-88.0778,12.1,1111122 
DISL,ioos:station:DISL:DISL:1,2013-02-03T13:30:00Z,30.2513,-88.0778,11.99,1111122 
DISL,ioos:station:DISL:DISL:1,2013-02-03T14:00:00Z,30.2513,-88.0778,11.87,1111122 
DISL,ioos:station:DISL:DISL:1,2013-02-03T14:30:00Z,30.2513,-88.0778,11.86,1111122 
DISL,ioos:station:DISL:DISL:1,2013-02-03T15:00:00Z,30.2513,-88.0778,11.97,1111122 
DISL,ioos:station:DISL:DISL:1,2013-02-03T15:30:00Z,30.2513,-88.0778,11.94,1111122 
DISL,ioos:station:DISL:DISL:1,2013-02-03T16:00:00Z,30.2513,-88.0778,12.12,1111122 
DISL,ioos:station:DISL:DISL:1,2013-02-03T16:30:00Z,30.2513,-88.0778,12.32,1111122 
DISL,ioos:station:DISL:DISL:1,2013-02-03T17:00:00Z,30.2513,-88.0778,12.88,1111122 
DISL,ioos:station:DISL:DISL:1,2013-02-03T17:30:00Z,30.2513,-88.0778,13.12,1111122 
DISL,ioos:station:DISL:DISL:1,2013-02-03T18:00:00Z,30.2513,-88.0778,14.49,1111122 
DISL,ioos:station:DISL:DISL:1,2013-02-03T18:30:00Z,30.2513,-88.0778,14.85,1111122 
DISL,ioos:station:DISL:DISL:1,2013-02-03T19:00:00Z,30.2513,-88.0778,14.86,1111122 
DISL,ioos:station:DISL:DISL:1,2013-02-03T19:30:00Z,30.2513,-88.0778,15.63,1111122 
DISL,ioos:station:DISL:DISL:1,2013-02-03T20:00:00Z,30.2513,-88.0778,15.59,1111122 
DISL,ioos:station:DISL:DISL:1,2013-02-03T20:30:00Z,30.2513,-88.0778,15.89,1111122 
DISL,ioos:station:DISL:DISL:1,2013-02-03T21:00:00Z,30.2513,-88.0778,15.89,1111122 
DISL,ioos:station:DISL:DISL:1,2013-02-03T21:30:00Z,30.2513,-88.0778,16.28,1111122 
DISL,ioos:station:DISL:DISL:1,2013-02-03T22:00:00Z,30.2513,-88.0778,16.37,1111122 
DISL,ioos:station:DISL:DISL:1,2013-02-03T22:30:00Z,30.2513,-88.0778,16.08,1111122 
DISL,ioos:station:DISL:DISL:1,2013-02-03T23:00:00Z,30.2513,-88.0778,15.37,1111122 
DISL,ioos:station:DISL:DISL:1,2013-02-03T23:30:00Z,30.2513,-88.0778,14.99,1111122 
DISL,ioos:station:DISL:DISL:1,2013-02-04T00:00:00Z,30.2513,-88.0778,14.91,1111122 
DISL,ioos:station:DISL:DISL:1,2013-02-04T00:30:00Z,30.2513,-88.0778,14.85,1111122 
DISL,ioos:station:DISL:DISL:1,2013-02-04T01:00:00Z,30.2513,-88.0778,14.75,1111122 
DISL,ioos:station:DISL:DISL:1,2013-02-04T01:30:00Z,30.2513,-88.0778,14.7,1111122 
DISL,ioos:station:DISL:DISL:1,2013-02-04T02:00:00Z,30.2513,-88.0778,14.92,1111122 
DISL,ioos:station:DISL:DISL:1,2013-02-04T02:30:00Z,30.2513,-88.0778,14.68,1111122 
DISL,ioos:station:DISL:DISL:1,2013-02-04T03:00:00Z,30.2513,-88.0778,14.59,1111122 
DISL,ioos:station:DISL:DISL:1,2013-02-04T03:30:00Z,30.2513,-88.0778,14.83,1111122 
DISL,ioos:station:DISL:DISL:1,2013-02-04T04:00:00Z,30.2513,-88.0778,14.79,1111122 
DISL,ioos:station:DISL:DISL:1,2013-02-04T04:30:00Z,30.2513,-88.0778,14.73,1111122 
DISL,ioos:station:DISL:DISL:1,2013-02-04T05:00:00Z,30.2513,-88.0778,14.57,1111122 
DISL,ioos:station:DISL:DISL:1,2013-02-04T05:30:00Z,30.2513,-88.0778,14.36,1111122 
DISL,ioos:station:DISL:DISL:1,2013-02-04T06:00:00Z,30.2513,-88.0778,13.94,1111122 
DISL,ioos:station:DISL:DISL:1,2013-02-04T06:30:00Z,30.2513,-88.0778,13.44,1111122 
DISL,ioos:station:DISL:DISL:1,2013-02-04T07:00:00Z,30.2513,-88.0778,12.94,1111122 
DISL,ioos:station:DISL:DISL:1,2013-02-04T07:30:00Z,30.2513,-88.0778,12.72,1111122 
DISL,ioos:station:DISL:DISL:1,2013-02-04T08:00:00Z,30.2513,-88.0778,13.35,1111122 
DISL,ioos:station:DISL:DISL:1,2013-02-04T08:30:00Z,30.2513,-88.0778,13.13,1111122 
DISL,ioos:station:DISL:DISL:1,2013-02-04T09:00:00Z,30.2513,-88.0778,12.93,1111122 
DISL,ioos:station:DISL:DISL:1,2013-02-04T09:30:00Z,30.2513,-88.0778,12.72,1111122 
DISL,ioos:station:DISL:DISL:1,2013-02-04T10:00:00Z,30.2513,-88.0778,12.52,1111122 
DISL,ioos:station:DISL:DISL:1,2013-02-04T10:30:00Z,30.2513,-88.0778,12.35,1111122 
DISL,ioos:station:DISL:DISL:1,2013-02-04T11:00:00Z,30.2513,-88.0778,12.19,1111122 
DISL,ioos:station:DISL:DISL:1,2013-02-04T11:30:00Z,30.2513,-88.0778,12.23,1111122 
DISL,ioos:station:DISL:DISL:1,2013-02-04T12:00:00Z,30.2513,-88.0778,12.05,1111122 
DISL,ioos:station:DISL:DISL:1,2013-02-04T12:30:00Z,30.2513,-88.0778,12.25,1111122 
DISL,ioos:station:DISL:DISL:1,2013-02-04T13:00:00Z,30.2513,-88.0778,12.21,1111122 
DISL,ioos:station:DISL:DISL:1,2013-02-04T13:30:00Z,30.2513,-88.0778,12.0,1111122 
DISL,ioos:station:DISL:DISL:1,2013-02-04T14:00:00Z,30.2513,-88.0778,11.94,1111122 
DISL,ioos:station:DISL:DISL:1,2013-02-04T14:30:00Z,30.2513,-88.0778,11.63,1111122 
DISL,ioos:station:DISL:DISL:1,2013-02-04T15:00:00Z,30.2513,-88.0778,11.84,1111122 
DISL,ioos:station:DISL:DISL:1,2013-02-04T15:30:00Z,30.2513,-88.0778,11.78,1111122 
DISL,ioos:station:DISL:DISL:1,2013-02-04T16:00:00Z,30.2513,-88.0778,12.1,1111122 
DISL,ioos:station:DISL:DISL:1,2013-02-04T16:30:00Z,30.2513,-88.0778,12.46,1111122 
DISL,ioos:station:DISL:DISL:1,2013-02-04T17:00:00Z,30.2513,-88.0778,12.61,1111122 
DISL,ioos:station:DISL:DISL:1,2013-02-04T17:30:00Z,30.2513,-88.0778,12.91,1111122 
DISL,ioos:station:DISL:DISL:1,2013-02-04T18:00:00Z,30.2513,-88.0778,13.37,1111122 
DISL,ioos:station:DISL:DISL:1,2013-02-04T18:30:00Z,30.2513,-88.0778,13.41,1111122 
DISL,ioos:station:DISL:DISL:1,2013-02-04T19:00:00Z,30.2513,-88.0778,13.73,1111122 
DISL,ioos:station:DISL:DISL:1,2013-02-04T19:30:00Z,30.2513,-88.0778,14.01,1111122 
DISL,ioos:station:DISL:DISL:1,2013-02-04T20:00:00Z,30.2513,-88.0778,14.19,1111122 
DISL,ioos:station:DISL:DISL:1,2013-02-04T20:30:00Z,30.2513,-88.0778,14.49,1111122 
DISL,ioos:station:DISL:DISL:1,2013-02-04T21:00:00Z,30.2513,-88.0778,14.74,1111122 
DISL,ioos:station:DISL:DISL:1,2013-02-04T21:30:00Z,30.2513,-88.0778,14.56,1111122 
DISL,ioos:station:DISL:DISL:1,2013-02-04T22:00:00Z,30.2513,-88.0778,14.53,1111122 
DISL,ioos:station:DISL:DISL:1,2013-02-04T22:30:00Z,30.2513,-88.0778,14.59,1111122 
DISL,ioos:station:DISL:DISL:1,2013-02-04T23:00:00Z,30.2513,-88.0778,15.33,1111122 
DISL,ioos:station:DISL:DISL:1,2013-02-04T23:30:00Z,30.2513,-88.0778,15.46,1111122 
DISL,ioos:station:DISL:DISL:1,2013-02-05T00:00:00Z,30.2513,-88.0778,15.22,1111122 
DISL,ioos:station:DISL:DISL:1,2013-02-05T00:30:00Z,30.2513,-88.0778,15.48,1111122 
DISL,ioos:station:DISL:DISL:1,2013-02-05T01:00:00Z,30.2513,-88.0778,15.55,1111122 
DISL,ioos:station:DISL:DISL:1,2013-02-05T01:30:00Z,30.2513,-88.0778,15.65,1111122 
DISL,ioos:station:DISL:DISL:1,2013-02-05T02:00:00Z,30.2513,-88.0778,15.67,1111122 
DISL,ioos:station:DISL:DISL:1,2013-02-05T02:30:00Z,30.2513,-88.0778,15.81,1111122 
DISL,ioos:station:DISL:DISL:1,2013-02-05T03:00:00Z,30.2513,-88.0778,15.82,1111122 
DISL,ioos:station:DISL:DISL:1,2013-02-05T03:30:00Z,30.2513,-88.0778,15.82,1111122 
DISL,ioos:station:DISL:DISL:1,2013-02-05T04:00:00Z,30.2513,-88.0778,15.67,1111122 
DISL,ioos:station:DISL:DISL:1,2013-02-05T04:30:00Z,30.2513,-88.0778,15.86,1111122 
DISL,ioos:station:DISL:DISL:1,2013-02-05T05:00:00Z,30.2513,-88.0778,16.07,1111122 
DISL,ioos:station:DISL:DISL:1,2013-02-05T05:30:00Z,30.2513,-88.0778,15.99,1111122 
DISL,ioos:station:DISL:DISL:1,2013-02-05T06:00:00Z,30.2513,-88.0778,15.53,1111122 
DISL,ioos:station:DISL:DISL:1,2013-02-05T06:30:00Z,30.2513,-88.0778,14.93,1111122 
DISL,ioos:station:DISL:DISL:1,2013-02-05T07:00:00Z,30.2513,-88.0778,14.82,1111122 
DISL,ioos:station:DISL:DISL:1,2013-02-05T07:30:00Z,30.2513,-88.0778,14.41,1111122 
DISL,ioos:station:DISL:DISL:1,2013-02-05T08:00:00Z,30.2513,-88.0778,14.36,1111122 
DISL,ioos:station:DISL:DISL:1,2013-02-05T08:30:00Z,30.2513,-88.0778,14.3,1111122 
DISL,ioos:station:DISL:DISL:1,2013-02-05T09:00:00Z,30.2513,-88.0778,13.81,1111122 
DISL,ioos:station:DISL:DISL:1,2013-02-05T09:30:00Z,30.2513,-88.0778,13.84,1111122 
DISL,ioos:station:DISL:DISL:1,2013-02-05T10:00:00Z,30.2513,-88.0778,13.74,1111122 
DISL,ioos:station:DISL:DISL:1,2013-02-05T10:30:00Z,30.2513,-88.0778,13.7,1111122 
DISL,ioos:station:DISL:DISL:1,2013-02-05T11:00:00Z,30.2513,-88.0778,13.89,1111122 
DISL,ioos:station:DISL:DISL:1,2013-02-05T11:30:00Z,30.2513,-88.0778,13.89,1111122 
DISL,ioos:station:DISL:DISL:1,2013-02-05T12:00:00Z,30.2513,-88.0778,13.93,1111122 
DISL,ioos:station:DISL:DISL:1,2013-02-05T12:30:00Z,30.2513,-88.0778,13.95,1111122 
DISL,ioos:station:DISL:DISL:1,2013-02-05T13:00:00Z,30.2513,-88.0778,14.05,1111122 
DISL,ioos:station:DISL:DISL:1,2013-02-05T13:30:00Z,30.2513,-88.0778,14.96,1111122 
DISL,ioos:station:DISL:DISL:1,2013-02-05T14:00:00Z,30.2513,-88.0778,15.36,1111122 
DISL,ioos:station:DISL:DISL:1,2013-02-05T14:30:00Z,30.2513,-88.0778,15.38,1111122 
DISL,ioos:station:DISL:DISL:1,2013-02-05T15:00:00Z,30.2513,-88.0778,15.67,1111122 
DISL,ioos:station:DISL:DISL:1,2013-02-05T15:30:00Z,30.2513,-88.0778,15.95,1111122 
DISL,ioos:station:DISL:DISL:1,2013-02-05T16:00:00Z,30.2513,-88.0778,16.2,1111122 
DISL,ioos:station:DISL:DISL:1,2013-02-05T16:30:00Z,30.2513,-88.0778,16.37,1111122 
DISL,ioos:station:DISL:DISL:1,2013-02-05T17:00:00Z,30.2513,-88.0778,16.56,1111122 
DISL,ioos:station:DISL:DISL:1,2013-02-05T17:30:00Z,30.2513,-88.0778,16.8,1111122 
DISL,ioos:station:DISL:DISL:1,2013-02-05T18:00:00Z,30.2513,-88.0778,16.98,1111122 
DISL,ioos:station:DISL:DISL:1,2013-02-05T18:30:00Z,30.2513,-88.0778,17.12,1111122 
DISL,ioos:station:DISL:DISL:1,2013-02-05T19:00:00Z,30.2513,-88.0778,17.06,1111122 
DISL,ioos:station:DISL:DISL:1,2013-02-05T19:30:00Z,30.2513,-88.0778,17.25,1111122 
DISL,ioos:station:DISL:DISL:1,2013-02-05T20:00:00Z,30.2513,-88.0778,16.98,1111122 
DISL,ioos:station:DISL:DISL:1,2013-02-05T20:30:00Z,30.2513,-88.0778,17.01,1111122 
DISL,ioos:station:DISL:DISL:1,2013-02-05T21:00:00Z,30.2513,-88.0778,16.85,1111122 
DISL,ioos:station:DISL:DISL:1,2013-02-05T21:30:00Z,30.2513,-88.0778,16.96,1111122 
DISL,ioos:station:DISL:DISL:1,2013-02-05T22:00:00Z,30.2513,-88.0778,16.31,1111122 
DISL,ioos:station:DISL:DISL:1,2013-02-05T22:30:00Z,30.2513,-88.0778,16.11,1111122 
DISL,ioos:station:DISL:DISL:1,2013-02-05T23:00:00Z,30.2513,-88.0778,15.41,1111122 
DISL,ioos:station:DISL:DISL:1,2013-02-05T23:30:00Z,30.2513,-88.0778,15.5,1111122 
DISL,ioos:station:DISL:DISL:1,2013-02-06T00:00:00Z,30.2513,-88.0778,15.45,1111122 
DISL,ioos:station:DISL:DISL:1,2013-02-06T00:30:00Z,30.2513,-88.0778,15.77,1111122 
DISL,ioos:station:DISL:DISL:1,2013-02-06T01:00:00Z,30.2513,-88.0778,15.3,1111122 
DISL,ioos:station:DISL:DISL:1,2013-02-06T01:30:00Z,30.2513,-88.0778,15.3,1111122 
DISL,ioos:station:DISL:DISL:1,2013-02-06T02:00:00Z,30.2513,-88.0778,15.14,1111122 
DISL,ioos:station:DISL:DISL:1,2013-02-06T02:30:00Z,30.2513,-88.0778,15.05,1111122 
DISL,ioos:station:DISL:DISL:1,2013-02-06T03:00:00Z,30.2513,-88.0778,14.9,1111122 
DISL,ioos:station:DISL:DISL:1,2013-02-06T03:30:00Z,30.2513,-88.0778,14.69,1111122 
DISL,ioos:station:DISL:DISL:1,2013-02-06T04:00:00Z,30.2513,-88.0778,14.63,1111122 
DISL,ioos:station:DISL:DISL:1,2013-02-06T04:30:00Z,30.2513,-88.0778,14.83,1111122 
DISL,ioos:station:DISL:DISL:1,2013-02-06T05:00:00Z,30.2513,-88.0778,14.56,1111122 
DISL,ioos:station:DISL:DISL:1,2013-02-06T05:30:00Z,30.2513,-88.0778,14.64,1111122 
DISL,ioos:station:DISL:DISL:1,2013-02-06T06:00:00Z,30.2513,-88.0778,14.5,1111122 
DISL,ioos:station:DISL:DISL:1,2013-02-06T06:30:00Z,30.2513,-88.0778,14.47,1111122 
DISL,ioos:station:DISL:DISL:1,2013-02-06T07:00:00Z,30.2513,-88.0778,14.63,1111122 
DISL,ioos:station:DISL:DISL:1,2013-02-06T07:30:00Z,30.2513,-88.0778,14.51,1111122 
DISL,ioos:station:DISL:DISL:1,2013-02-06T08:00:00Z,30.2513,-88.0778,14.48,1111122 
DISL,ioos:station:DISL:DISL:1,2013-02-06T08:30:00Z,30.2513,-88.0778,14.19,1111122 
DISL,ioos:station:DISL:DISL:1,2013-02-06T09:00:00Z,30.2513,-88.0778,14.32,1111122 
DISL,ioos:station:DISL:DISL:1,2013-02-06T09:30:00Z,30.2513,-88.0778,14.14,1111122 
DISL,ioos:station:DISL:DISL:1,2013-02-06T10:00:00Z,30.2513,-88.0778,14.05,1111122 
DISL,ioos:station:DISL:DISL:1,2013-02-06T10:30:00Z,30.2513,-88.0778,13.57,1111122 
DISL,ioos:station:DISL:DISL:1,2013-02-06T11:00:00Z,30.2513,-88.0778,13.64,1111122 
DISL,ioos:station:DISL:DISL:1,2013-02-06T11:30:00Z,30.2513,-88.0778,13.44,1111122 
DISL,ioos:station:DISL:DISL:1,2013-02-06T12:00:00Z,30.2513,-88.0778,13.04,1111122 
DISL,ioos:station:DISL:DISL:1,2013-02-06T12:30:00Z,30.2513,-88.0778,12.86,1111122 
DISL,ioos:station:DISL:DISL:1,2013-02-06T13:00:00Z,30.2513,-88.0778,12.7,1111122 
DISL,ioos:station:DISL:DISL:1,2013-02-06T13:30:00Z,30.2513,-88.0778,12.49,1111122 
DISL,ioos:station:DISL:DISL:1,2013-02-06T14:00:00Z,30.2513,-88.0778,12.66,1111122 
DISL,ioos:station:DISL:DISL:1,2013-02-06T14:30:00Z,30.2513,-88.0778,12.96,1111122 
DISL,ioos:station:DISL:DISL:1,2013-02-06T15:00:00Z,30.2513,-88.0778,13.36,1111122 
DISL,ioos:station:DISL:DISL:1,2013-02-06T15:30:00Z,30.2513,-88.0778,13.74,1111122 
DISL,ioos:station:DISL:DISL:1,2013-02-06T16:00:00Z,30.2513,-88.0778,13.8,1111122 
DISL,ioos:station:DISL:DISL:1,2013-02-06T16:30:00Z,30.2513,-88.0778,13.8,1111122 
DISL,ioos:station:DISL:DISL:1,2013-02-06T17:00:00Z,30.2513,-88.0778,13.89,1111122 
DISL,ioos:station:DISL:DISL:1,2013-02-06T17:30:00Z,30.2513,-88.0778,13.99,1111122 
DISL,ioos:station:DISL:DISL:1,2013-02-06T18:00:00Z,30.2513,-88.0778,14.14,1111122 
DISL,ioos:station:DISL:DISL:1,2013-02-06T18:30:00Z,30.2513,-88.0778,14.72,1111122 
DISL,ioos:station:DISL:DISL:1,2013-02-06T19:00:00Z,30.2513,-88.0778,15.61,1111122 
DISL,ioos:station:DISL:DISL:1,2013-02-06T19:30:00Z,30.2513,-88.0778,15.58,1111122 
DISL,ioos:station:DISL:DISL:1,2013-02-06T20:00:00Z,30.2513,-88.0778,15.81,1111122 
DISL,ioos:station:DISL:DISL:1,2013-02-06T20:30:00Z,30.2513,-88.0778,16.0,1111122 
DISL,ioos:station:DISL:DISL:1,2013-02-06T21:00:00Z,30.2513,-88.0778,16.4,1111122 
DISL,ioos:station:DISL:DISL:1,2013-02-06T21:30:00Z,30.2513,-88.0778,16.66,1111122 
DISL,ioos:station:DISL:DISL:1,2013-02-06T22:00:00Z,30.2513,-88.0778,16.72,1111122 
DISL,ioos:station:DISL:DISL:1,2013-02-06T22:30:00Z,30.2513,-88.0778,16.76,1111122 
DISL,ioos:station:DISL:DISL:1,2013-02-06T23:00:00Z,30.2513,-88.0778,16.87,1111122 
DISL,ioos:station:DISL:DISL:1,2013-02-06T23:30:00Z,30.2513,-88.0778,16.81,1111122 
DISL,ioos:station:DISL:DISL:1,2013-02-07T00:00:00Z,30.2513,-88.0778,16.79,1111122 